STARLINK-35427, 66110

Orbit data source: Space-Track

STARLINK-35427, 66110 is a payload satellite owned by SpaceX/Seattle (US) in LEO that was launched on Sun, 19 Oct 2025 UTC via an FALCON 9 launch vehicle from the Air Force Western Test Range (AFWTR). Payload-class satellites include a variety of spacecraft equipped with specific instruments for various scientific and technological missions. These include communications satellites like Starlink; space stations such as the ISS; scientific satellites like the Hubble; Earth observation satellites from companies like Planet Labs, Umbra, and HawkEye 360; GPS; miniature CubeSats for education and research; and military/defense satellites.

Loading next visibility...
Identifier
66110, 2025-236AA
Orbit
LEO
Country
Flag of USUS
Related business
Manufacturer
SpaceX/Seattle
Mission
Operational Commercial Communications
Bus & Motor
STARLINK V2MO, Unknown motor
Mass
575 kg wet, ~530 kg dry
Launch date (UTC)
2025-10-19 (8 months ago)
Launch vehicle
FALCON 9
Launch site
Air Force Western Test Range (AFWTR)
Object type
Payload
Rocket body
Debris
Shape & HBR
Box + 2 Pan, 17.7 m
Radar Cross Section
36.964 m², Large (>1 m²)

Expand to show TLE details & history
Last TLE update: 1 day ago

TLE from 1 day ago
0 STARLINK-35427
1 66110U 25236AA  26170.86797604  .00017488  00000-0  60109-3 0  9992
2 66110  53.1599 349.6128 0001259  97.9228 262.1915 15.30205345 38583
Epoch: 2026-06-19T20:49Z
TLE epoch observation values (Epoch: 2026-06-19T20:49:53.129Z)
Latitude
-0.0001°
Longitude
129.05057°
Altitude
476.216 km
Speed
7.629 km/s
True Right ascension
23h 18m 27s
True Declination
0° 00' 00"
Sunlit
Object was in daylight at epoch
Visualization orbit readout
Latitude
Unknown
Longitude
Unknown
Altitude
Unknown
Speed
Unknown
Apparent Right ascension
Unknown
Apparent Declination
Unknown
Sunlit
N/A
Visualization observer readout
Local Sidereal Time
07:24:15
Azimuth
Unknown
Elevation
Unknown
Doppler factor
Unknown
Orbital elements
Apogee altitude
476.318 km
Perigee altitude
474.593 km
Semi-major axis
6,853.593 km
Eccentricity
0.00013
Inclination
53.1599°
RAAN
349.6128°
Arg. of periapsis
97.9228°
True anomaly
262.17721°
Mean anomaly
262.1915°
Eccentric anomaly
262.18435°
Mean motion
3.8253 °/min
Orbital period
94.11 mins
BSTAR
0.00060109
Loading maneuver chart data...
Computing Atmospheric mass density...
Loading historical data...
Loading historical data...
Loading historical data...
Loading historical data...
Loading historical data...
Loading historical data...
Loading historical data...

Documentation

Showing up to 5 results
|